TimePDT,TemperatureF,Dew PointF,Humidity,Sea Level PressureIn,VisibilityMPH,Wind Direction,Wind SpeedMPH,Gust SpeedMPH,PrecipitationIn,Events,Conditions,WindDirDegrees,DateUTC
12:53 AM,71.1,50.0,47,29.78,10.0,NW,3.5,-,N/A,,Clear,310,2013-09-09 07:53:00
1:53 AM,71.1,50.0,47,29.77,10.0,Calm,Calm,-,N/A,,Clear,0,2013-09-09 08:53:00
2:53 AM,70.0,51.1,51,29.76,10.0,Calm,Calm,-,N/A,,Clear,0,2013-09-09 09:53:00
3:53 AM,68.0,51.1,55,29.76,10.0,Calm,Calm,-,N/A,,Clear,0,2013-09-09 10:53:00
4:53 AM,66.9,48.0,51,29.76,10.0,Calm,Calm,-,N/A,,Clear,0,2013-09-09 11:53:00
5:53 AM,64.9,48.0,54,29.77,10.0,Calm,Calm,-,N/A,,Clear,0,2013-09-09 12:53:00
6:53 AM,64.9,50.0,58,29.78,10.0,Calm,Calm,-,N/A,,Clear,0,2013-09-09 13:53:00
7:53 AM,68.0,50.0,52,29.80,10.0,Calm,Calm,-,N/A,,Clear,0,2013-09-09 14:53:00
8:53 AM,71.1,52.0,51,29.80,10.0,Calm,Calm,-,N/A,,Clear,0,2013-09-09 15:53:00
9:53 AM,77.0,50.0,39,29.79,10.0,Calm,Calm,-,N/A,,Clear,0,2013-09-09 16:53:00
10:53 AM,82.9,48.9,31,29.78,10.0,Calm,Calm,-,N/A,,Clear,0,2013-09-09 17:53:00
11:53 AM,89.1,46.9,23,29.76,10.0,SW,3.5,-,N/A,,Clear,230,2013-09-09 18:53:00
12:53 PM,93.9,45.0,18,29.74,10.0,Calm,Calm,-,N/A,,Clear,0,2013-09-09 19:53:00
1:53 PM,97.0,45.0,17,29.71,10.0,Variable,4.6,-,N/A,,Clear,0,2013-09-09 20:53:00
2:53 PM,100.9,48.9,17,29.70,10.0,West,11.5,17.3,N/A,,Clear,270,2013-09-09 21:53:00
3:53 PM,99.0,51.1,20,29.68,10.0,West,13.8,-,N/A,,Clear,260,2013-09-09 22:53:00
4:53 PM,95.0,45.0,18,29.68,10.0,West,17.3,-,N/A,,Clear,280,2013-09-09 23:53:00
5:53 PM,91.0,41.0,17,29.69,10.0,West,16.1,-,N/A,,Clear,280,2013-09-10 00:53:00
6:53 PM,87.1,41.0,20,29.68,10.0,West,13.8,-,N/A,,Clear,270,2013-09-10 01:53:00
7:53 PM,81.0,43.0,26,29.69,10.0,NW,6.9,-,N/A,,Clear,310,2013-09-10 02:53:00
8:53 PM,77.0,46.9,34,29.71,10.0,NW,5.8,-,N/A,,Clear,320,2013-09-10 03:53:00
9:53 PM,73.0,50.0,44,29.72,10.0,NW,9.2,-,N/A,,Clear,310,2013-09-10 04:53:00
10:53 PM,72.0,51.1,48,29.72,10.0,NW,8.1,-,N/A,,Clear,310,2013-09-10 05:53:00
11:53 PM,70.0,51.1,51,29.72,10.0,West,3.5,-,N/A,,Clear,260,2013-09-10 06:53:00